Year,Month,Day,Hour,Minute,Value (Times are PST for temperature in C)
2021,06,29,00,00,25.50
2021,06,29,00,01,25.40
2021,06,29,00,02,25.40
2021,06,29,00,03,25.40
2021,06,29,00,04,25.40
2021,06,29,00,05,25.40
2021,06,29,00,06,25.30
2021,06,29,00,07,25.30
2021,06,29,00,08,25.30
2021,06,29,00,09,25.30
2021,06,29,00,10,25.20
2021,06,29,00,11,25.20
2021,06,29,00,12,25.20
2021,06,29,00,13,25.10
2021,06,29,00,14,25.10
2021,06,29,00,15,25.10
2021,06,29,00,16,25.10
2021,06,29,00,17,25.00
2021,06,29,00,18,25.00
2021,06,29,00,19,25.00
2021,06,29,00,20,25.00
2021,06,29,00,21,25.00
2021,06,29,00,22,25.00
2021,06,29,00,23,25.00
2021,06,29,00,24,25.00
2021,06,29,00,25,25.00
2021,06,29,00,26,24.90
2021,06,29,00,27,24.90
2021,06,29,00,28,24.90
2021,06,29,00,29,24.80
2021,06,29,00,30,24.80
2021,06,29,00,31,24.70
2021,06,29,00,32,24.70
2021,06,29,00,33,24.60
2021,06,29,00,34,24.60
2021,06,29,00,35,24.50
2021,06,29,00,36,24.50
2021,06,29,00,37,24.40
2021,06,29,00,38,24.40
2021,06,29,00,39,24.30
2021,06,29,00,40,24.30
2021,06,29,00,41,24.30
2021,06,29,00,42,24.20
2021,06,29,00,43,24.20
2021,06,29,00,44,24.20
2021,06,29,00,45,24.10
2021,06,29,00,46,24.10
2021,06,29,00,47,24.10
2021,06,29,00,48,24.10
2021,06,29,00,49,24.10
2021,06,29,00,50,24.10
2021,06,29,00,51,24.10
2021,06,29,00,52,24.10
2021,06,29,00,53,24.10
2021,06,29,00,54,24.10
2021,06,29,00,55,24.10
2021,06,29,00,56,24.10
2021,06,29,00,57,24.10
2021,06,29,00,58,24.10
2021,06,29,00,59,24.00
2021,06,29,01,00,23.90
2021,06,29,01,01,23.90
2021,06,29,01,02,23.80
2021,06,29,01,03,23.80
2021,06,29,01,04,23.80
2021,06,29,01,05,23.80
2021,06,29,01,06,23.70
2021,06,29,01,07,23.70
2021,06,29,01,08,23.70
2021,06,29,01,09,23.70
2021,06,29,01,10,23.70
2021,06,29,01,11,23.70
2021,06,29,01,12,23.70
2021,06,29,01,13,23.70
2021,06,29,01,14,23.70
2021,06,29,01,15,23.70
2021,06,29,01,16,23.70
2021,06,29,01,17,23.70
2021,06,29,01,18,23.70
2021,06,29,01,19,23.70
2021,06,29,01,20,23.70
2021,06,29,01,21,23.70
2021,06,29,01,22,23.70
2021,06,29,01,23,23.70
2021,06,29,01,24,23.70
2021,06,29,01,25,23.70
2021,06,29,01,26,23.70
2021,06,29,01,27,23.70
2021,06,29,01,28,23.70
2021,06,29,01,29,23.70
2021,06,29,01,30,23.70
2021,06,29,01,31,23.70
2021,06,29,01,32,23.70
2021,06,29,01,33,23.70
2021,06,29,01,34,23.70
2021,06,29,01,35,23.70
2021,06,29,01,36,23.70
2021,06,29,01,37,23.70
2021,06,29,01,38,23.70
2021,06,29,01,39,23.70
2021,06,29,01,40,23.70
2021,06,29,01,41,23.70
2021,06,29,01,42,23.70
2021,06,29,01,43,23.70
2021,06,29,01,44,23.70
2021,06,29,01,45,23.70
2021,06,29,01,46,23.70
2021,06,29,01,47,23.70
2021,06,29,01,48,23.70
2021,06,29,01,49,23.70
2021,06,29,01,50,23.70
2021,06,29,01,51,23.70
2021,06,29,01,52,23.70
2021,06,29,01,53,23.70
2021,06,29,01,54,23.70
2021,06,29,01,55,23.70
2021,06,29,01,56,23.70
2021,06,29,01,57,23.60
2021,06,29,01,58,23.60
2021,06,29,01,59,23.60
2021,06,29,02,00,23.60
2021,06,29,02,01,23.50
2021,06,29,02,02,23.40
2021,06,29,02,03,23.40
2021,06,29,02,04,23.30
2021,06,29,02,05,23.30
2021,06,29,02,06,23.20
2021,06,29,02,07,23.10
2021,06,29,02,08,23.00
2021,06,29,02,09,22.90
2021,06,29,02,10,22.80
2021,06,29,02,11,22.70
2021,06,29,02,12,22.60
2021,06,29,02,13,22.50
2021,06,29,02,14,22.40
2021,06,29,02,15,22.40
2021,06,29,02,16,22.30
2021,06,29,02,17,22.20
2021,06,29,02,18,22.20
2021,06,29,02,19,22.20
2021,06,29,02,20,22.10
2021,06,29,02,21,22.10
2021,06,29,02,22,22.00
2021,06,29,02,23,22.00
2021,06,29,02,24,21.90
2021,06,29,02,25,21.90
2021,06,29,02,26,21.90
2021,06,29,02,27,21.80
2021,06,29,02,28,21.80
2021,06,29,02,29,21.80
2021,06,29,02,30,21.80
2021,06,29,02,31,21.80
2021,06,29,02,32,21.80
2021,06,29,02,33,21.80
2021,06,29,02,34,21.80
2021,06,29,02,35,21.80
2021,06,29,02,36,21.80
2021,06,29,02,37,21.80
2021,06,29,02,38,21.70
2021,06,29,02,39,21.70
2021,06,29,02,40,21.70
2021,06,29,02,41,21.70
2021,06,29,02,42,21.80
2021,06,29,02,43,21.80
2021,06,29,02,44,21.80
2021,06,29,02,45,21.80
2021,06,29,02,46,21.80
2021,06,29,02,47,21.80
2021,06,29,02,48,21.80
2021,06,29,02,49,21.80
2021,06,29,02,50,21.80
2021,06,29,02,51,21.80
2021,06,29,02,52,21.80
2021,06,29,02,53,21.80
2021,06,29,02,54,21.80
2021,06,29,02,55,21.80
2021,06,29,02,56,21.80
2021,06,29,02,57,21.80
2021,06,29,02,58,21.80
2021,06,29,02,59,21.80
2021,06,29,03,00,21.80
2021,06,29,03,01,21.80
2021,06,29,03,02,21.80
2021,06,29,03,03,21.80
2021,06,29,03,04,21.80
2021,06,29,03,05,21.80
2021,06,29,03,06,21.80
2021,06,29,03,07,21.80
2021,06,29,03,08,21.70
2021,06,29,03,09,21.70
2021,06,29,03,10,21.70
2021,06,29,03,11,21.70
2021,06,29,03,12,21.70
2021,06,29,03,13,21.70
2021,06,29,03,14,21.80
2021,06,29,03,15,21.80
2021,06,29,03,16,21.80
2021,06,29,03,17,21.90
2021,06,29,03,18,21.90
2021,06,29,03,19,21.90
2021,06,29,03,20,21.90
2021,06,29,03,21,21.90
2021,06,29,03,22,21.90
2021,06,29,03,23,21.90
2021,06,29,03,24,21.90
2021,06,29,03,25,21.90
2021,06,29,03,26,21.90
2021,06,29,03,27,21.90
2021,06,29,03,28,21.90
2021,06,29,03,29,21.80
2021,06,29,03,30,21.80
2021,06,29,03,31,21.70
2021,06,29,03,32,21.70
2021,06,29,03,33,21.60
2021,06,29,03,34,21.60
2021,06,29,03,35,21.50
2021,06,29,03,36,21.40
2021,06,29,03,37,21.30
2021,06,29,03,38,21.30
2021,06,29,03,39,21.30
2021,06,29,03,40,21.20
2021,06,29,03,41,21.10
2021,06,29,03,42,21.10
2021,06,29,03,43,21.00
2021,06,29,03,44,21.00
2021,06,29,03,45,21.00
2021,06,29,03,46,20.90
2021,06,29,03,47,20.90
2021,06,29,03,48,20.90
2021,06,29,03,49,20.90
2021,06,29,03,50,20.90
2021,06,29,03,51,20.80
2021,06,29,03,52,20.80
2021,06,29,03,53,20.80
2021,06,29,03,54,20.80
2021,06,29,03,55,20.80
2021,06,29,03,56,20.90
2021,06,29,03,57,20.90
2021,06,29,03,58,20.90
2021,06,29,03,59,20.90
2021,06,29,04,00,20.90
2021,06,29,04,01,20.90
2021,06,29,04,02,20.90
2021,06,29,04,03,21.00
2021,06,29,04,04,21.00
2021,06,29,04,05,21.00
2021,06,29,04,06,21.00
2021,06,29,04,07,21.00
2021,06,29,04,08,21.00
2021,06,29,04,09,21.00
2021,06,29,04,10,21.10
2021,06,29,04,11,21.10
2021,06,29,04,12,21.10
2021,06,29,04,13,21.10
2021,06,29,04,14,21.10
2021,06,29,04,15,21.10
2021,06,29,04,16,21.10
2021,06,29,04,17,21.10
2021,06,29,04,18,21.10
2021,06,29,04,19,21.10
2021,06,29,04,20,21.10
2021,06,29,04,21,21.10
2021,06,29,04,22,21.20
2021,06,29,04,23,21.20
2021,06,29,04,24,21.20
2021,06,29,04,25,21.20
2021,06,29,04,26,21.20
2021,06,29,04,27,21.20
2021,06,29,04,28,21.20
2021,06,29,04,29,21.20
2021,06,29,04,30,21.20
2021,06,29,04,31,21.20
2021,06,29,04,32,21.20
2021,06,29,04,33,21.20
2021,06,29,04,34,21.20
2021,06,29,04,35,21.20
2021,06,29,04,36,21.20
2021,06,29,04,37,21.20
2021,06,29,04,38,21.10
2021,06,29,04,39,21.10
2021,06,29,04,40,21.10
2021,06,29,04,41,21.10
2021,06,29,04,42,21.10
2021,06,29,04,43,21.10
2021,06,29,04,44,21.10
2021,06,29,04,45,21.10
2021,06,29,04,46,21.10
2021,06,29,04,47,21.10
2021,06,29,04,48,21.10
2021,06,29,04,49,21.10
2021,06,29,04,50,21.10
2021,06,29,04,51,21.00
2021,06,29,04,52,21.00
2021,06,29,04,53,21.00
2021,06,29,04,54,21.00
2021,06,29,04,55,21.00
2021,06,29,04,56,21.00
2021,06,29,04,57,20.90
2021,06,29,04,58,20.90
2021,06,29,04,59,20.90
2021,06,29,05,00,20.90
2021,06,29,05,01,20.90
2021,06,29,05,02,20.90
2021,06,29,05,03,20.90
2021,06,29,05,04,20.90
2021,06,29,05,05,20.90
2021,06,29,05,06,20.90
2021,06,29,05,07,20.80
2021,06,29,05,08,20.80
2021,06,29,05,09,20.80
2021,06,29,05,10,20.80
2021,06,29,05,11,20.80
2021,06,29,05,12,20.80
2021,06,29,05,13,20.70
2021,06,29,05,14,20.70
2021,06,29,05,15,20.70
2021,06,29,05,16,20.70
2021,06,29,05,17,20.70
2021,06,29,05,18,20.60
2021,06,29,05,19,20.60
2021,06,29,05,20,20.60
2021,06,29,05,21,20.60
2021,06,29,05,22,20.60
2021,06,29,05,23,20.60
2021,06,29,05,24,20.50
2021,06,29,05,25,20.50
2021,06,29,05,26,20.50
2021,06,29,05,27,20.50
2021,06,29,05,28,20.50
2021,06,29,05,29,20.50
2021,06,29,05,30,20.50
2021,06,29,05,31,20.50
2021,06,29,05,32,20.50
2021,06,29,05,33,20.50
2021,06,29,05,34,20.50
2021,06,29,05,35,20.40
2021,06,29,05,36,20.50
2021,06,29,05,37,20.50
2021,06,29,05,38,20.50
2021,06,29,05,39,20.50
2021,06,29,05,40,20.50
2021,06,29,05,41,20.50
2021,06,29,05,42,20.50
2021,06,29,05,43,20.50
2021,06,29,05,44,20.50
2021,06,29,05,45,20.50
2021,06,29,05,46,20.50
2021,06,29,05,47,20.60
2021,06,29,05,48,20.60
2021,06,29,05,49,20.60
2021,06,29,05,50,20.60
2021,06,29,05,51,20.70
2021,06,29,05,52,20.70
2021,06,29,05,53,20.70
2021,06,29,05,54,20.80
2021,06,29,05,55,20.80
2021,06,29,05,56,20.80
2021,06,29,05,57,20.80
2021,06,29,05,58,20.80
2021,06,29,05,59,20.90
2021,06,29,06,00,20.90
2021,06,29,06,01,20.90
2021,06,29,06,02,21.00
2021,06,29,06,03,21.00
2021,06,29,06,04,21.00
2021,06,29,06,05,21.00
2021,06,29,06,06,21.10
2021,06,29,06,07,21.10
2021,06,29,06,08,21.20
2021,06,29,06,09,21.20
2021,06,29,06,10,21.30
2021,06,29,06,11,21.30
2021,06,29,06,12,21.30
2021,06,29,06,13,21.30
2021,06,29,06,14,21.40
2021,06,29,06,15,21.40
2021,06,29,06,16,21.50
2021,06,29,06,17,21.60
2021,06,29,06,18,21.60
2021,06,29,06,19,21.60
2021,06,29,06,20,21.60
2021,06,29,06,21,21.70
2021,06,29,06,22,21.70
2021,06,29,06,23,21.80
2021,06,29,06,24,21.80
2021,06,29,06,25,21.90
2021,06,29,06,26,21.90
2021,06,29,06,27,22.00
2021,06,29,06,28,22.00
2021,06,29,06,29,22.00
2021,06,29,06,30,22.10
2021,06,29,06,31,22.10
2021,06,29,06,32,22.10
2021,06,29,06,33,22.10
2021,06,29,06,34,22.10
2021,06,29,06,35,22.10
2021,06,29,06,36,22.00
2021,06,29,06,37,22.00
2021,06,29,06,38,21.90
2021,06,29,06,39,21.80
2021,06,29,06,40,21.70
2021,06,29,06,41,21.60
2021,06,29,06,42,21.60
2021,06,29,06,43,21.60
2021,06,29,06,44,21.60
2021,06,29,06,45,21.60
2021,06,29,06,46,21.60
2021,06,29,06,47,21.60
2021,06,29,06,48,21.60
2021,06,29,06,49,21.60
2021,06,29,06,50,21.60
2021,06,29,06,51,21.60
2021,06,29,06,52,21.60
2021,06,29,06,53,21.60
2021,06,29,06,54,21.60
2021,06,29,06,55,21.60
2021,06,29,06,56,21.70
2021,06,29,06,57,21.70
2021,06,29,06,58,21.80
2021,06,29,06,59,21.80
2021,06,29,07,00,21.90
2021,06,29,07,01,21.90
2021,06,29,07,02,22.00
2021,06,29,07,03,22.00
2021,06,29,07,04,22.00
2021,06,29,07,05,22.00
2021,06,29,07,06,22.10
2021,06,29,07,07,22.10
2021,06,29,07,08,22.10
2021,06,29,07,09,22.20
2021,06,29,07,10,22.20
2021,06,29,07,11,22.20
2021,06,29,07,12,22.30
2021,06,29,07,13,22.30
2021,06,29,07,14,22.30
2021,06,29,07,15,22.30
2021,06,29,07,16,22.30
2021,06,29,07,17,22.40
2021,06,29,07,18,22.40
2021,06,29,07,19,22.40
2021,06,29,07,20,22.40
2021,06,29,07,21,22.40
2021,06,29,07,22,22.50
2021,06,29,07,23,22.50
2021,06,29,07,24,22.50
2021,06,29,07,25,22.60
2021,06,29,07,26,22.60
2021,06,29,07,27,22.60
2021,06,29,07,28,22.60
2021,06,29,07,29,22.60
2021,06,29,07,30,22.60
2021,06,29,07,31,22.60
2021,06,29,07,32,22.60
2021,06,29,07,33,22.60
2021,06,29,07,34,22.60
2021,06,29,07,35,22.50
2021,06,29,07,36,22.50
2021,06,29,07,37,22.50
2021,06,29,07,38,22.60
2021,06,29,07,39,22.60
2021,06,29,07,40,22.60
2021,06,29,07,41,22.60
2021,06,29,07,42,22.70
2021,06,29,07,43,22.70
2021,06,29,07,44,22.70
2021,06,29,07,45,22.80
2021,06,29,07,46,22.80
2021,06,29,07,47,22.80
2021,06,29,07,48,22.70
2021,06,29,07,49,22.70
2021,06,29,07,50,22.70
2021,06,29,07,51,22.70
2021,06,29,07,52,22.70
2021,06,29,07,53,22.70
2021,06,29,07,54,22.70
2021,06,29,07,55,22.70
2021,06,29,07,56,22.70
2021,06,29,07,57,22.70
2021,06,29,07,58,22.70
2021,06,29,07,59,22.70
2021,06,29,08,00,22.70
2021,06,29,08,01,22.70
2021,06,29,08,02,22.80
2021,06,29,08,03,22.80
2021,06,29,08,04,22.80
2021,06,29,08,05,22.90
2021,06,29,08,06,22.90
2021,06,29,08,07,22.90
2021,06,29,08,08,23.00
2021,06,29,08,09,23.10
2021,06,29,08,10,23.10
2021,06,29,08,11,23.10
2021,06,29,08,12,23.10
2021,06,29,08,13,23.10
2021,06,29,08,14,23.10
2021,06,29,08,15,23.00
2021,06,29,08,16,22.90
2021,06,29,08,17,22.90
2021,06,29,08,18,22.90
2021,06,29,08,19,22.90
2021,06,29,08,20,22.90
2021,06,29,08,21,22.90
2021,06,29,08,22,23.10
2021,06,29,08,23,23.10
2021,06,29,08,24,23.10
2021,06,29,08,25,23.20
2021,06,29,08,26,23.20
2021,06,29,08,27,23.20
2021,06,29,08,28,23.20
2021,06,29,08,29,23.20
2021,06,29,08,30,23.20
2021,06,29,08,31,23.20
2021,06,29,08,32,23.30
2021,06,29,08,33,23.30
2021,06,29,08,34,23.40
2021,06,29,08,35,23.40
2021,06,29,08,36,23.50
2021,06,29,08,37,23.60
2021,06,29,08,38,23.70
2021,06,29,08,39,23.70
2021,06,29,08,40,23.80
2021,06,29,08,41,23.90
2021,06,29,08,42,24.00
2021,06,29,08,43,24.10
2021,06,29,08,44,24.20
2021,06,29,08,45,24.30
2021,06,29,08,46,24.40
2021,06,29,08,47,24.50
2021,06,29,08,48,24.50
2021,06,29,08,49,24.60
2021,06,29,08,50,24.60
2021,06,29,08,51,24.60
2021,06,29,08,52,24.60
2021,06,29,08,53,24.60
2021,06,29,08,54,24.60
2021,06,29,08,55,24.60
2021,06,29,08,56,24.60
2021,06,29,08,57,24.60
2021,06,29,08,58,24.50
2021,06,29,08,59,24.50
2021,06,29,09,00,24.50
2021,06,29,09,01,24.50
2021,06,29,09,02,24.40
2021,06,29,09,03,24.40
2021,06,29,09,04,24.30
2021,06,29,09,05,24.20
2021,06,29,09,06,24.10
2021,06,29,09,07,24.00
2021,06,29,09,08,23.90
2021,06,29,09,09,23.80
2021,06,29,09,10,23.70
2021,06,29,09,11,23.70
2021,06,29,09,12,23.70
2021,06,29,09,13,23.70
2021,06,29,09,14,23.70
2021,06,29,09,15,23.70
2021,06,29,09,16,23.70
2021,06,29,09,17,23.70
2021,06,29,09,18,23.90
2021,06,29,09,19,24.00
2021,06,29,09,20,24.10
2021,06,29,09,21,24.10
2021,06,29,09,22,24.20
2021,06,29,09,23,24.30
2021,06,29,09,24,24.40
2021,06,29,09,25,24.50
2021,06,29,09,26,24.60
2021,06,29,09,27,24.70
2021,06,29,09,28,24.70
2021,06,29,09,29,24.70
2021,06,29,09,30,24.60
2021,06,29,09,31,24.50
2021,06,29,09,32,24.50
2021,06,29,09,33,24.50
2021,06,29,09,34,24.60
2021,06,29,09,35,24.70
2021,06,29,09,36,24.80
2021,06,29,09,37,24.90
2021,06,29,09,38,24.90
2021,06,29,09,39,25.10
2021,06,29,09,40,25.10
2021,06,29,09,41,25.20
2021,06,29,09,42,25.30
2021,06,29,09,43,25.30
2021,06,29,09,44,25.40
2021,06,29,09,45,25.40
2021,06,29,09,46,25.40
2021,06,29,09,47,25.40
2021,06,29,09,48,25.40
2021,06,29,09,49,25.40
2021,06,29,09,50,25.50
2021,06,29,09,51,25.50
2021,06,29,09,52,25.60
2021,06,29,09,53,25.60
2021,06,29,09,54,25.60
2021,06,29,09,55,25.70
2021,06,29,09,56,25.70
2021,06,29,09,57,25.70
2021,06,29,09,58,25.70
2021,06,29,09,59,25.80
2021,06,29,10,00,25.80
2021,06,29,10,01,25.90
2021,06,29,10,02,26.00
2021,06,29,10,03,26.10
2021,06,29,10,04,26.20
2021,06,29,10,05,26.30
2021,06,29,10,06,26.40
2021,06,29,10,07,26.50
2021,06,29,10,08,26.60
2021,06,29,10,09,26.60
2021,06,29,10,10,26.60
2021,06,29,10,11,26.70
2021,06,29,10,12,26.70
2021,06,29,10,13,26.70
2021,06,29,10,14,26.70
2021,06,29,10,15,26.80
2021,06,29,10,16,26.80
2021,06,29,10,17,26.90
2021,06,29,10,18,26.90
2021,06,29,10,19,27.00
2021,06,29,10,20,27.10
2021,06,29,10,21,27.20
2021,06,29,10,22,27.20
2021,06,29,10,23,27.20
2021,06,29,10,24,27.20
2021,06,29,10,25,27.30
2021,06,29,10,26,27.30
2021,06,29,10,27,27.30
2021,06,29,10,28,27.30
2021,06,29,10,29,27.30
2021,06,29,10,30,27.30
2021,06,29,10,31,27.30
2021,06,29,10,32,27.30
2021,06,29,10,33,27.30
2021,06,29,10,34,27.30
2021,06,29,10,35,27.30
2021,06,29,10,36,27.20
2021,06,29,10,37,27.20
2021,06,29,10,38,27.20
2021,06,29,10,39,27.20
2021,06,29,10,40,27.20
2021,06,29,10,41,27.20
2021,06,29,10,42,27.30
2021,06,29,10,43,27.40
2021,06,29,10,44,27.50
2021,06,29,10,45,27.60
2021,06,29,10,46,27.60
2021,06,29,10,47,27.60
2021,06,29,10,48,27.60
2021,06,29,10,49,27.50
2021,06,29,10,50,27.40
2021,06,29,10,51,27.30
2021,06,29,10,52,27.30
2021,06,29,10,53,27.30
2021,06,29,10,54,27.30
2021,06,29,10,55,27.30
2021,06,29,10,56,27.30
2021,06,29,10,57,27.30
2021,06,29,10,58,27.30
2021,06,29,10,59,27.20
2021,06,29,11,00,27.20
2021,06,29,11,01,27.10
2021,06,29,11,02,27.10
2021,06,29,11,03,27.10
2021,06,29,11,04,27.10
2021,06,29,11,05,27.10
2021,06,29,11,06,27.10
2021,06,29,11,07,27.00
2021,06,29,11,08,26.90
2021,06,29,11,09,26.90
2021,06,29,11,10,26.90
2021,06,29,11,11,26.80
2021,06,29,11,12,26.80
2021,06,29,11,13,26.70
2021,06,29,11,14,26.70
2021,06,29,11,15,26.70
2021,06,29,11,16,26.70
2021,06,29,11,17,26.70
2021,06,29,11,18,26.70
2021,06,29,11,19,26.70
2021,06,29,11,20,26.80
2021,06,29,11,21,26.90
2021,06,29,11,22,27.00
2021,06,29,11,23,27.10
2021,06,29,11,24,27.30
2021,06,29,11,25,27.30
2021,06,29,11,26,27.40
2021,06,29,11,27,27.60
2021,06,29,11,28,27.60
2021,06,29,11,29,27.70
2021,06,29,11,30,27.70
2021,06,29,11,31,27.80
2021,06,29,11,32,27.90
2021,06,29,11,33,28.00
2021,06,29,11,34,28.10
2021,06,29,11,35,28.20
2021,06,29,11,36,28.20
2021,06,29,11,37,28.10
2021,06,29,11,38,28.00
2021,06,29,11,39,27.80
2021,06,29,11,40,27.70
2021,06,29,11,41,27.60
2021,06,29,11,42,27.60
2021,06,29,11,43,27.60
2021,06,29,11,44,27.60
2021,06,29,11,45,27.60
2021,06,29,11,46,27.60
2021,06,29,11,47,27.70
2021,06,29,11,48,27.60
2021,06,29,11,49,27.50
2021,06,29,11,50,27.40
2021,06,29,11,51,27.30
2021,06,29,11,52,27.30
2021,06,29,11,53,27.30
2021,06,29,11,54,27.30
2021,06,29,11,55,27.30
2021,06,29,11,56,27.40
2021,06,29,11,57,27.60
2021,06,29,11,58,27.70
2021,06,29,11,59,27.90
2021,06,29,12,00,28.00
2021,06,29,12,01,28.10
2021,06,29,12,02,28.20
2021,06,29,12,03,28.20
2021,06,29,12,04,28.10
2021,06,29,12,05,28.10
2021,06,29,12,06,28.10
2021,06,29,12,07,28.20
2021,06,29,12,08,28.30
2021,06,29,12,09,28.40
2021,06,29,12,10,28.60
2021,06,29,12,11,28.70
2021,06,29,12,12,28.80
2021,06,29,12,13,28.90
2021,06,29,12,14,28.90
2021,06,29,12,15,28.90
2021,06,29,12,16,28.90
2021,06,29,12,17,28.90
2021,06,29,12,18,28.90
2021,06,29,12,19,28.90
2021,06,29,12,20,28.90
2021,06,29,12,21,28.90
2021,06,29,12,22,28.90
2021,06,29,12,23,28.90
2021,06,29,12,24,29.00
2021,06,29,12,25,29.10
2021,06,29,12,26,29.10
2021,06,29,12,27,29.20
2021,06,29,12,28,29.30
2021,06,29,12,29,29.30
2021,06,29,12,30,29.30
2021,06,29,12,31,29.30
2021,06,29,12,32,29.30
2021,06,29,12,33,29.30
2021,06,29,12,34,29.30
2021,06,29,12,35,29.30
2021,06,29,12,36,29.30
2021,06,29,12,37,29.40
2021,06,29,12,38,29.40
2021,06,29,12,39,29.30
2021,06,29,12,40,29.30
2021,06,29,12,41,29.30
2021,06,29,12,42,29.40
2021,06,29,12,43,29.40
2021,06,29,12,44,29.50
2021,06,29,12,45,29.60
2021,06,29,12,46,29.70
2021,06,29,12,47,29.70
2021,06,29,12,48,29.80
2021,06,29,12,49,29.80
2021,06,29,12,50,29.80
2021,06,29,12,51,29.90
2021,06,29,12,52,29.90
2021,06,29,12,53,29.80
2021,06,29,12,54,29.80
2021,06,29,12,55,29.80
2021,06,29,12,56,29.80
2021,06,29,12,57,29.80
2021,06,29,12,58,29.90
2021,06,29,12,59,29.90
2021,06,29,13,00,30.00
2021,06,29,13,01,30.10
2021,06,29,13,02,30.30
2021,06,29,13,03,30.40
2021,06,29,13,04,30.40
2021,06,29,13,05,30.50
2021,06,29,13,06,30.60
2021,06,29,13,07,30.70
2021,06,29,13,08,30.80
2021,06,29,13,09,30.90
2021,06,29,13,10,30.80
2021,06,29,13,11,30.80
2021,06,29,13,12,30.80
2021,06,29,13,13,30.80
2021,06,29,13,14,30.80
2021,06,29,13,15,30.80
2021,06,29,13,16,30.80
2021,06,29,13,17,30.80
2021,06,29,13,18,30.90
2021,06,29,13,19,30.90
2021,06,29,13,20,30.90
2021,06,29,13,21,31.00
2021,06,29,13,22,31.00
2021,06,29,13,23,31.10
2021,06,29,13,24,31.20
2021,06,29,13,25,31.20
2021,06,29,13,26,31.20
2021,06,29,13,27,31.30
2021,06,29,13,28,31.40
2021,06,29,13,29,31.40
2021,06,29,13,30,31.40
2021,06,29,13,31,31.40
2021,06,29,13,32,31.40
2021,06,29,13,33,31.40
2021,06,29,13,34,31.40
2021,06,29,13,35,31.40
2021,06,29,13,36,31.40
2021,06,29,13,37,31.40
2021,06,29,13,38,31.40
2021,06,29,13,39,31.40
2021,06,29,13,40,31.30
2021,06,29,13,41,31.20
2021,06,29,13,42,31.20
2021,06,29,13,43,31.20
2021,06,29,13,44,31.20
2021,06,29,13,45,31.30
2021,06,29,13,46,31.30
2021,06,29,13,47,31.30
2021,06,29,13,48,31.30
2021,06,29,13,49,31.30
2021,06,29,13,50,31.30
2021,06,29,13,51,31.30
2021,06,29,13,52,31.40
2021,06,29,13,53,31.40
2021,06,29,13,54,31.50
2021,06,29,13,55,31.60
2021,06,29,13,56,31.70
2021,06,29,13,57,31.70
2021,06,29,13,58,31.70
2021,06,29,13,59,31.70
2021,06,29,14,00,31.70
2021,06,29,14,01,31.70
2021,06,29,14,02,31.70
2021,06,29,14,03,31.80
2021,06,29,14,04,31.80
2021,06,29,14,05,31.80
2021,06,29,14,06,31.90
2021,06,29,14,07,31.90
2021,06,29,14,08,32.00
2021,06,29,14,09,32.10
2021,06,29,14,10,32.20
2021,06,29,14,11,32.30
2021,06,29,14,12,32.30
2021,06,29,14,13,32.40
2021,06,29,14,14,32.40
2021,06,29,14,15,32.40
2021,06,29,14,16,32.50
2021,06,29,14,17,32.50
2021,06,29,14,18,32.50
2021,06,29,14,19,32.70
2021,06,29,14,20,32.80
2021,06,29,14,21,32.90
2021,06,29,14,22,33.00
2021,06,29,14,23,33.10
2021,06,29,14,24,33.20
2021,06,29,14,25,33.40
2021,06,29,14,26,33.40
2021,06,29,14,27,33.50
2021,06,29,14,28,33.50
2021,06,29,14,29,33.50
2021,06,29,14,30,33.60
2021,06,29,14,31,33.70
2021,06,29,14,32,33.70
2021,06,29,14,33,33.70
2021,06,29,14,34,33.70
2021,06,29,14,35,33.60
2021,06,29,14,36,33.60
2021,06,29,14,37,33.60
2021,06,29,14,38,33.60
2021,06,29,14,39,33.60
2021,06,29,14,40,33.60
2021,06,29,14,41,33.60
2021,06,29,14,42,33.60
2021,06,29,14,43,33.60
2021,06,29,14,44,33.50
2021,06,29,14,45,33.50
2021,06,29,14,46,33.60
2021,06,29,14,47,33.60
2021,06,29,14,48,33.60
2021,06,29,14,49,33.60
2021,06,29,14,50,33.60
2021,06,29,14,51,33.60
2021,06,29,14,52,33.60
2021,06,29,14,53,33.60
2021,06,29,14,54,33.60
2021,06,29,14,55,33.60
2021,06,29,14,56,33.50
2021,06,29,14,57,33.50
2021,06,29,14,58,33.50
2021,06,29,14,59,33.50
2021,06,29,15,00,33.50
2021,06,29,15,01,33.50
2021,06,29,15,02,33.50
2021,06,29,15,03,33.50
2021,06,29,15,04,33.40
2021,06,29,15,05,33.40
2021,06,29,15,06,33.30
2021,06,29,15,07,33.20
2021,06,29,15,08,33.20
2021,06,29,15,09,33.20
2021,06,29,15,10,33.10
2021,06,29,15,11,33.10
2021,06,29,15,12,33.10
2021,06,29,15,13,33.00
2021,06,29,15,14,33.00
2021,06,29,15,15,33.00
2021,06,29,15,16,33.00
2021,06,29,15,17,33.00
2021,06,29,15,18,33.00
2021,06,29,15,19,33.00
2021,06,29,15,20,33.10
2021,06,29,15,21,33.10
2021,06,29,15,22,33.10
2021,06,29,15,23,33.10
2021,06,29,15,24,33.10
2021,06,29,15,25,33.20
2021,06,29,15,26,33.20
2021,06,29,15,27,33.20
2021,06,29,15,28,33.20
2021,06,29,15,29,33.20
2021,06,29,15,30,33.20
2021,06,29,15,31,33.30
2021,06,29,15,32,33.30
2021,06,29,15,33,33.40
2021,06,29,15,34,33.40
2021,06,29,15,35,33.40
2021,06,29,15,36,33.50
2021,06,29,15,37,33.50
2021,06,29,15,38,33.40
2021,06,29,15,39,33.30
2021,06,29,15,40,33.20
2021,06,29,15,41,33.20
2021,06,29,15,42,33.10
2021,06,29,15,43,33.10
2021,06,29,15,44,33.00
2021,06,29,15,45,32.90
2021,06,29,15,46,32.80
2021,06,29,15,47,32.80
2021,06,29,15,48,32.60
2021,06,29,15,49,32.60
2021,06,29,15,50,32.60
2021,06,29,15,51,32.60
2021,06,29,15,52,32.50
2021,06,29,15,53,32.50
2021,06,29,15,54,32.50
2021,06,29,15,55,32.50
2021,06,29,15,56,32.50
2021,06,29,15,57,32.40
2021,06,29,15,58,32.50
2021,06,29,15,59,32.50
2021,06,29,16,00,32.50
2021,06,29,16,01,32.50
2021,06,29,16,02,32.60
2021,06,29,16,03,32.60
2021,06,29,16,04,32.50
2021,06,29,16,05,32.50
2021,06,29,16,06,32.40
2021,06,29,16,07,32.40
2021,06,29,16,08,32.30
2021,06,29,16,09,32.30
2021,06,29,16,10,32.30
2021,06,29,16,11,32.30
2021,06,29,16,12,32.30
2021,06,29,16,13,32.30
2021,06,29,16,14,32.30
2021,06,29,16,15,32.30
2021,06,29,16,16,32.20
2021,06,29,16,17,32.20
2021,06,29,16,18,32.10
2021,06,29,16,19,32.10
2021,06,29,16,20,32.10
2021,06,29,16,21,32.10
2021,06,29,16,22,32.00
2021,06,29,16,23,31.90
2021,06,29,16,24,31.90
2021,06,29,16,25,31.80
2021,06,29,16,26,31.80
2021,06,29,16,27,31.80
2021,06,29,16,28,31.70
2021,06,29,16,29,31.70
2021,06,29,16,30,31.70
2021,06,29,16,31,31.60
2021,06,29,16,32,31.60
2021,06,29,16,33,31.70
2021,06,29,16,34,31.70
2021,06,29,16,35,31.80
2021,06,29,16,36,31.90
2021,06,29,16,37,31.90
2021,06,29,16,38,31.80
2021,06,29,16,39,31.80
2021,06,29,16,40,31.80
2021,06,29,16,41,31.80
2021,06,29,16,42,31.70
2021,06,29,16,43,31.70
2021,06,29,16,44,31.70
2021,06,29,16,45,31.70
2021,06,29,16,46,31.60
2021,06,29,16,47,31.60
2021,06,29,16,48,31.60
2021,06,29,16,49,31.60
2021,06,29,16,50,31.60
2021,06,29,16,51,31.60
2021,06,29,16,52,31.60
2021,06,29,16,53,31.60
2021,06,29,16,54,31.60
2021,06,29,16,55,31.60
2021,06,29,16,56,31.60
2021,06,29,16,57,31.60
2021,06,29,16,58,31.60
2021,06,29,16,59,31.60
2021,06,29,17,00,31.60
2021,06,29,17,01,31.60
2021,06,29,17,02,31.70
2021,06,29,17,03,31.70
2021,06,29,17,04,31.70
2021,06,29,17,05,31.60
2021,06,29,17,06,31.60
2021,06,29,17,07,31.50
2021,06,29,17,08,31.40
2021,06,29,17,09,31.40
2021,06,29,17,10,31.30
2021,06,29,17,11,31.30
2021,06,29,17,12,31.20
2021,06,29,17,13,31.20
2021,06,29,17,14,31.20
2021,06,29,17,15,31.20
2021,06,29,17,16,31.20
2021,06,29,17,17,31.10
2021,06,29,17,18,31.10
2021,06,29,17,19,31.00